1497668401.05,18571,16.38,73298.3,-1.69,-2.43,-2.43,0,*54
1497668402.26,18572,16.38,73292.8,-1.69,-2.39,-2.43,0,*5A
1497668403.54,18573,16.38,73288.5,-1.69,-2.67,-2.67,0,*56
1497668404.81,18574,16.38,73282.5,-1.69,-2.67,-2.67,0,*51
1497668406.08,18575,16.38,73274.0,-1.69,-2.67,-2.67,0,*50
1497668407.33,18576,16.38,73268.0,-1.71,-2.75,-2.75,0,*5A
1497668408.55,18577,16.38,73276.8,-1.69,-2.79,-2.79,0,*52
1497668409.8,18578,16.38,73276.3,-1.69,-2.71,-2.79,0,*55
1497668410.99,18579,16.38,73280.8,-1.71,-2.83,-2.87,0,*51
1497668412.21,18580,16.38,73282.3,-1.69,-2.79,-2.91,0,*5C
1497668413.44,18581,16.38,73284.0,-1.71,-2.83,-2.71,0,*5F
1497668414.63,18582,16.38,73276.8,-1.71,-2.83,-2.83,0,*51
1497668415.83,18583,16.38,73280.3,-1.71,-2.87,-2.95,0,*53
1497668417.05,18584,16.38,73272.5,-1.69,-2.91,-2.91,0,*5E
1497668418.24,18585,16.38,73260.5,-1.71,-2.87,-2.83,0,*52
1497668419.5,18586,16.38,73264.5,-1.71,-2.75,-2.75,0,*55
1497668420.75,18587,16.38,73268.3,-1.71,-2.75,-2.75,0,*54
1497668422.02,18588,16.38,73274.3,-1.69,-2.71,-2.71,0,*52
1497668423.28,18589,16.38,73272.8,-1.71,-2.75,-2.75,0,*5A
1497668424.53,18590,16.38,73276.5,-1.71,-2.63,-2.71,0,*51
1497668425.8,18591,16.38,73278.0,-1.73,-2.59,-2.63,0,*58
1497668427.05,18592,16.38,73256.5,-1.73,-2.75,-2.83,0,*5B
1497668428.32,18593,16.38,73256.8,-1.73,-2.59,-2.51,0,*5B
1497668429.51,18594,16.38,73270.0,-1.71,-2.43,-2.43,0,*56
1497668430.77,18595,16.38,73264.5,-1.71,-2.47,-2.47,0,*57
1497668432.03,18596,16.38,73264.3,-1.71,-2.47,-2.51,0,*53
1497668433.28,18597,16.38,73268.0,-1.69,-2.43,-2.51,0,*5F
1497668434.49,18598,16.38,73272.0,-1.69,-2.39,-2.43,0,*5E
1497668435.75,18599,16.38,73278.3,-1.71,-2.47,-2.47,0,*5B
1497668437.03,18600,16.38,73276.8,-1.69,-2.47,-2.55,0,*52
1497668438.28,18601,16.38,73282.3,-1.71,-2.51,-2.51,0,*59
1497668439.56,18602,16.38,73286.0,-1.69,-2.47,-2.47,0,*53
1497668440.83,18603,16.38,73278.5,-1.69,-2.59,-2.63,0,*5B
1497668442.08,18604,16.38,73274.0,-1.69,-2.71,-2.79,0,*5D
1497668443.33,18605,16.38,73278.0,-1.71,-2.75,-2.75,0,*5D
1497668444.58,18606,16.38,73276.3,-1.71,-2.59,-2.59,0,*5E
1497668445.83,18607,16.38,73278.8,-1.71,-2.51,-2.51,0,*5F
1497668447.05,18608,16.38,73302.0,-1.69,-2.43,-2.43,0,*59
1497668448.27,18609,16.38,73304.5,-1.69,-2.43,-2.43,0,*58
1497668449.52,18610,16.38,73298.5,-1.71,-2.51,-2.47,0,*5E
1497668450.77,18611,16.38,73296.0,-1.71,-2.59,-2.51,0,*50
1497668452.05,18612,16.38,73298.5,-1.69,-2.55,-2.55,0,*52
1497668453.29,18613,16.38,73306.5,-1.71,-2.71,-2.59,0,*50
1497668454.54,18614,16.38,73300.3,-1.71,-2.59,-2.59,0,*5D
1497668455.79,18615,16.38,73296.3,-1.71,-2.67,-2.75,0,*5F
1497668457.04,18616,16.38,73296.3,-1.71,-2.75,-2.75,0,*5F
1497668458.29,18617,16.38,73290.3,-1.71,-2.75,-2.75,0,*5E
1497668459.55,18618,16.38,73288.5,-1.71,-2.71,-2.71,0,*51
1497668460.8,18619,16.38,73304.0,-1.69,-2.79,-2.67,0,*56
1497668462.02,18620,16.38,73296.3,-1.69,-2.79,-2.79,0,*53
1497668463.23,18621,16.38,73276.8,-1.69,-2.79,-2.79,0,*52
1497668464.45,18622,16.38,73272.3,-1.69,-2.79,-2.79,0,*51
1497668465.68,18623,16.38,73276.3,-1.71,-2.83,-2.75,0,*50
1497668466.87,18624,16.38,73290.3,-1.71,-2.83,-2.87,0,*5A
1497668468.07,18625,16.38,73292.0,-1.71,-2.87,-2.87,0,*5F
1497668469.32,18626,16.38,73270.3,-1.69,-2.83,-2.71,0,*58
1497668470.54,18627,16.38,73270.0,-1.69,-2.79,-2.83,0,*51
1497668471.73,18628,16.38,73250.5,-1.71,-2.83,-2.87,0,*56
1497668472.94,18629,16.38,73258.0,-1.71,-2.95,-2.95,0,*53
1497668474.17,18630,16.38,73278.8,-1.71,-2.83,-2.71,0,*56
1497668475.42,18631,16.38,73252.8,-1.71,-2.75,-2.71,0,*5E
1497668476.69,18632,16.38,73236.5,-1.73,-2.51,-2.51,0,*5B
1497668477.97,18633,16.38,73250.0,-1.73,-2.51,-2.51,0,*5A
1497668479.17,18634,16.38,73264.8,-1.71,-2.43,-2.35,0,*5E
1497668480.37,18635,16.38,73258.5,-1.71,-2.23,-2.23,0,*5E
1497668481.57,18636,16.38,73264.0,-1.71,-2.35,-2.35,0,*5D
1497668482.82,18637,16.38,73278.0,-1.71,-2.47,-2.47,0,*5C
1497668484.07,18638,16.38,73288.0,-1.71,-2.59,-2.71,0,*59
1497668485.32,18639,16.38,73288.8,-1.71,-2.63,-2.59,0,*5B
1497668486.58,18640,16.38,73284.0,-1.71,-2.71,-2.71,0,*5C
1497668487.77,18641,16.38,73290.0,-1.71,-2.83,-2.83,0,*5D
1497668489.0,18642,16.38,73290.3,-1.71,-2.83,-2.75,0,*57
1497668490.25,18643,16.38,73282.5,-1.71,-2.63,-2.63,0,*5F
1497668491.51,18644,16.38,73278.5,-1.71,-2.63,-2.71,0,*5B
1497668492.76,18645,16.38,73298.3,-1.71,-2.63,-2.59,0,*50
1497668494.01,18646,16.38,73276.8,-1.71,-2.71,-2.71,0,*5A
1497668495.21,18647,16.38,73280.0,-1.71,-2.83,-2.83,0,*5B
1497668496.43,18648,16.38,73288.0,-1.69,-2.83,-2.79,0,*58
1497668497.62,18649,16.38,73270.8,-1.71,-2.87,-2.83,0,*51
1497668498.82,18650,16.38,73270.5,-1.71,-2.83,-2.79,0,*58
1497668500.02,18651,16.38,73280.3,-1.71,-2.95,-2.87,0,*5F
1497668501.24,18652,16.38,73292.5,-1.73,-2.83,-2.83,0,*5D
1497668502.51,18653,16.38,73302.0,-1.73,-2.75,-2.71,0,*58
1497668503.78,18654,16.38,73302.0,-1.73,-2.63,-2.59,0,*52
1497668505.06,18655,16.38,73296.8,-1.73,-2.71,-2.71,0,*5A
1497668506.3,18656,16.38,73286.8,-1.73,-2.75,-2.83,0,*50
1497668507.57,18657,16.38,73292.8,-1.73,-2.75,-2.75,0,*58
1497668508.82,18658,16.38,73272.3,-1.73,-2.75,-2.83,0,*5E
1497668510.04,18659,16.38,73284.8,-1.73,-2.95,-2.95,0,*56
1497668511.26,18660,16.38,73286.3,-1.73,-2.87,-2.83,0,*58
1497668512.48,18661,16.38,73270.0,-1.73,-2.87,-2.95,0,*5E
1497668513.68,18662,16.38,73270.5,-1.71,-2.87,-2.87,0,*5C
1497668514.94,18663,16.38,73278.3,-1.71,-2.71,-2.71,0,*5D
1497668516.21,18664,16.38,73280.0,-1.73,-2.51,-2.51,0,*58
1497668517.42,18665,16.38,73282.3,-1.73,-2.43,-2.43,0,*59
1497668518.65,18666,16.38,73294.3,-1.73,-2.31,-2.31,0,*5A
1497668519.86,18667,16.38,73296.8,-1.71,-2.31,-2.31,0,*59
1497668521.05,18668,16.38,73290.0,-1.71,-2.43,-2.35,0,*57
1497668522.31,18669,16.38,73294.0,-1.71,-2.47,-2.47,0,*57
1497668523.53,18670,16.38,73298.3,-1.69,-2.43,-2.43,0,*56
1497668524.81,18671,16.38,73298.5,-1.69,-2.47,-2.47,0,*57
1497668526.06,18672,16.38,73296.5,-1.71,-2.51,-2.47,0,*5A
1497668527.31,18673,16.38,73296.0,-1.71,-2.59,-2.63,0,*55
1497668528.55,18674,16.38,73290.5,-1.71,-2.59,-2.59,0,*5B
1497668529.83,18675,16.38,73294.8,-1.69,-2.47,-2.47,0,*53
1497668531.03,18676,16.38,73300.8,-1.71,-2.35,-2.43,0,*58
1497668532.25,18677,16.38,73304.0,-1.69,-2.43,-2.43,0,*51
1497668533.5,18678,16.38,73302.0,-1.71,-2.47,-2.47,0,*57
1497668534.77,18679,16.38,73300.3,-1.69,-2.67,-2.67,0,*5F
1497668536.03,18680,16.38,73296.0,-1.71,-2.63,-2.71,0,*53
1497668537.3,18681,16.38,73300.3,-1.69,-2.67,-2.67,0,*58
1497668538.58,18682,16.38,73290.3,-1.69,-2.67,-2.67,0,*5B
1497668539.82,18683,16.38,73294.5,-1.69,-2.71,-2.79,0,*52
1497668541.07,18684,16.38,73294.0,-1.69,-2.71,-2.79,0,*55
1497668542.34,18685,16.38,73298.5,-1.69,-2.71,-2.71,0,*5C
1497668543.57,18686,16.38,73296.3,-1.71,-2.83,-2.75,0,*5F
1497668544.79,18687,16.38,73296.8,-1.71,-2.75,-2.83,0,*5E
1497668546.07,18688,16.38,73302.8,-1.69,-2.47,-2.47,0,*51
1497668547.31,18689,16.38,73296.3,-1.71,-2.59,-2.59,0,*59
1497668548.59,18690,16.38,73296.0,-1.69,-2.59,-2.47,0,*57
1497668549.84,18691,16.38,73288.3,-1.71,-2.51,-2.51,0,*50
1497668551.12,18692,16.38,73292.5,-1.69,-2.47,-2.47,0,*5A
1497668552.32,18693,16.38,73292.5,-1.71,-2.43,-2.43,0,*52
1497668553.53,18694,16.38,73302.5,-1.69,-2.39,-2.43,0,*51
1497668554.76,18695,16.38,73298.0,-1.71,-2.47,-2.43,0,*50
1497668555.97,18696,16.38,73290.3,-1.69,-2.43,-2.43,0,*5E
1497668557.17,18697,16.38,73294.5,-1.71,-2.43,-2.43,0,*56
1497668558.41,18698,16.38,73292.0,-1.71,-2.59,-2.59,0,*59
1497668559.66,18699,16.38,73276.3,-1.71,-2.59,-2.59,0,*58
1497668560.88,18700,16.38,73300.8,-1.67,-2.43,-2.47,0,*5A
1497668562.1,18701,16.38,73300.0,-1.69,-2.27,-2.15,0,*50
1497668563.32,18702,16.38,73302.8,-1.69,-2.27,-2.27,0,*52
1497668564.55,18703,16.38,73302.5,-1.69,-2.31,-2.31,0,*53
1497668565.77,18704,16.38,73300.5,-1.69,-2.19,-2.27,0,*59
1497668566.96,18705,16.38,73314.0,-1.67,-2.27,-2.15,0,*5A
1497668568.16,18706,16.38,73318.0,-1.67,-2.15,-2.15,0,*58
1497668569.36,18707,16.38,73310.0,-1.67,-2.19,-2.19,0,*59
1497668570.55,18708,16.38,73302.5,-1.67,-2.39,-2.31,0,*5E
1497668571.75,18709,16.38,73304.5,-1.67,-2.43,-2.43,0,*57
1497668572.94,18710,16.38,73310.5,-1.67,-2.43,-2.39,0,*52
1497668574.14,18711,16.38,73304.0,-1.67,-2.31,-2.27,0,*59
1497668575.36,18712,16.38,73308.3,-1.65,-2.27,-2.23,0,*5B
1497668576.56,18713,16.38,73306.8,-1.67,-2.27,-2.23,0,*58
1497668577.79,18714,16.38,73294.3,-1.65,-2.23,-2.23,0,*59
1497668579.01,18715,16.38,73306.8,-1.65,-2.15,-2.15,0,*58
1497668580.23,18716,16.38,73296.0,-1.65,-2.15,-2.23,0,*5E
1497668581.51,18717,16.38,73304.8,-1.65,-2.51,-2.51,0,*5A
1497668582.78,18718,16.38,73280.3,-1.65,-2.75,-2.67,0,*56
1497668584.03,18719,16.38,73290.0,-1.65,-2.75,-2.79,0,*58
1497668585.28,18720,16.38,73306.0,-1.67,-2.59,-2.47,0,*53
1497668586.52,18721,16.38,73300.5,-1.67,-2.67,-2.59,0,*50
1497668587.74,18722,16.38,73288.8,-1.65,-2.87,-2.87,0,*5C
1497668589.02,18723,16.38,73286.0,-1.65,-2.63,-2.67,0,*59
1497668590.3,18724,16.38,73270.5,-1.65,-2.55,-2.51,0,*5E
1497668591.52,18725,16.38,73286.8,-1.65,-2.43,-2.35,0,*5A
1497668592.72,18726,16.38,73288.3,-1.67,-2.31,-2.27,0,*5D
1497668593.94,18727,16.38,73300.3,-1.65,-2.27,-2.35,0,*5A
1497668595.15,18728,16.38,73316.5,-1.65,-2.27,-2.27,0,*56
1497668596.37,18729,16.38,73308.3,-1.65,-2.43,-2.39,0,*5A
1497668597.62,18730,16.38,73294.0,-1.65,-2.63,-2.83,0,*51
1497668598.82,18731,16.38,73276.5,-1.67,-2.79,-2.83,0,*59
1497668600.07,18732,16.38,73280.8,-1.65,-2.79,-2.75,0,*51
1497668601.32,18733,16.38,73290.8,-1.67,-2.59,-2.59,0,*5E
1497668602.56,18734,16.38,73306.8,-1.65,-2.43,-2.51,0,*58
1497668603.82,18735,16.38,73290.0,-1.67,-2.71,-2.67,0,*5F
1497668605.02,18736,16.38,73288.0,-1.67,-3.03,-3.03,0,*5B
1497668606.22,18737,16.38,73284.8,-1.67,-2.95,-2.95,0,*5A
1497668607.42,18738,16.38,73292.5,-1.67,-2.83,-2.83,0,*55
1497668608.66,18739,16.38,73298.3,-1.67,-2.67,-2.59,0,*59
1497668609.92,18740,16.38,73314.5,-1.67,-2.47,-2.47,0,*5A
1497668611.17,18741,16.38,73300.0,-1.65,-2.51,-2.43,0,*5A
1497668612.41,18742,16.38,73312.0,-1.67,-2.67,-2.67,0,*58
1497668613.64,18743,16.38,73306.3,-1.67,-2.79,-2.71,0,*51
1497668614.84,18744,16.38,73302.8,-1.67,-2.79,-2.91,0,*58
1497668616.03,18745,16.38,73300.3,-1.67,-2.91,-2.83,0,*5C
1497668617.28,18746,16.38,73300.3,-1.69,-2.83,-2.71,0,*5F
1497668618.55,18747,16.38,73306.3,-1.69,-2.71,-2.59,0,*59
1497668619.82,18748,16.38,73298.5,-1.69,-2.67,-2.59,0,*51
1497668621.07,18749,16.38,73310.0,-1.67,-2.67,-2.59,0,*5E
1497668622.32,18750,16.38,73314.3,-1.69,-2.79,-2.71,0,*5D
1497668623.54,18751,16.38,73330.8,-1.69,-2.83,-2.95,0,*53
1497668624.76,18752,16.38,73336.3,-1.69,-2.91,-2.95,0,*53
1497668625.98,18753,16.38,73306.5,-1.69,-3.03,-3.03,0,*56
1497668627.21,18754,16.38,73310.8,-1.69,-2.95,-2.95,0,*51
1497668628.42,18755,16.38,73304.0,-1.71,-2.95,-2.99,0,*55
1497668629.62,18756,16.38,73330.5,-1.71,-2.99,-2.95,0,*56
1497668630.83,18757,16.38,73326.0,-1.71,-2.99,-2.99,0,*5B
1497668632.05,18758,16.38,73340.5,-1.69,-2.95,-2.91,0,*59
1497668633.25,18759,16.38,73302.8,-1.71,-2.87,-2.87,0,*55
1497668634.47,18760,16.38,73294.3,-1.69,-2.79,-2.83,0,*53
1497668635.67,18761,16.38,73294.3,-1.71,-2.99,-2.99,0,*5E
1497668636.87,18762,16.38,73272.5,-1.71,-2.99,-2.87,0,*52
1497668638.08,18763,16.38,73272.8,-1.71,-2.95,-3.07,0,*56
1497668639.28,18764,16.38,73266.8,-1.71,-2.95,-2.99,0,*57
1497668640.5,18765,16.38,73260.8,-1.69,-2.83,-2.83,0,*53
1497668641.73,18766,16.38,73272.5,-1.71,-2.83,-2.75,0,*50
1497668643.0,18767,16.38,73282.0,-1.73,-2.75,-2.71,0,*5E
1497668644.25,18768,16.38,73284.0,-1.71,-2.71,-2.75,0,*53
1497668645.5,18769,16.38,73290.0,-1.71,-2.59,-2.59,0,*56
1497668646.75,18770,16.38,73298.0,-1.69,-2.47,-2.43,0,*53
1497668647.94,18771,16.38,73298.0,-1.71,-2.43,-2.39,0,*52
1497668649.16,18772,16.38,73298.0,-1.69,-2.43,-2.43,0,*55
1497668650.38,18773,16.38,73310.0,-1.69,-2.43,-2.43,0,*54
1497668651.6,18774,16.38,73326.0,-1.71,-2.47,-2.43,0,*5E
1497668652.87,18775,16.38,73314.3,-1.69,-2.55,-2.59,0,*5E
1497668654.14,18776,16.38,73310.3,-1.69,-2.59,-2.59,0,*51
1497668655.42,18777,16.38,73296.3,-1.69,-2.55,-2.55,0,*50
1497668656.7,18778,16.38,73298.5,-1.69,-2.47,-2.47,0,*5F
1497668657.95,18779,16.38,73314.8,-1.71,-2.47,-2.47,0,*57
1497668659.17,18780,16.38,73312.3,-1.69,-2.43,-2.43,0,*58
1497668660.39,18781,16.38,73328.3,-1.69,-2.27,-2.39,0,*56
1497668661.61,18782,16.38,73284.5,-1.69,-2.39,-2.39,0,*5A
1497668662.86,18783,16.38,73298.5,-1.71,-2.47,-2.47,0,*52
1497668664.14,18784,16.38,73296.8,-1.69,-2.55,-2.55,0,*5C
1497668665.41,18785,16.38,73316.0,-1.69,-2.55,-2.59,0,*51
1497668666.68,18786,16.38,73320.0,-1.69,-2.67,-2.67,0,*5E
1497668667.9,18787,16.38,73310.0,-1.69,-2.79,-2.79,0,*5F
1497668669.12,18788,16.38,73302.0,-1.69,-2.83,-2.79,0,*55
1497668670.4,18789,16.38,73248.3,-1.69,-2.71,-2.71,0,*51
1497668671.67,18790,16.38,73274.0,-1.69,-2.71,-2.59,0,*53
1497668672.89,18791,16.38,73294.3,-1.69,-2.39,-2.39,0,*58
1497668674.11,18792,16.38,73284.5,-1.69,-2.31,-2.27,0,*5C
1497668675.32,18793,16.38,73302.0,-1.69,-2.43,-2.43,0,*5A
1497668676.54,18794,16.38,73312.0,-1.69,-2.27,-2.27,0,*5D
1497668677.76,18795,16.38,73314.8,-1.69,-2.19,-2.15,0,*50
1497668678.98,18796,16.38,73312.5,-1.69,-2.31,-2.27,0,*58
1497668680.18,18797,16.38,73312.8,-1.67,-2.27,-2.27,0,*50
1497668681.37,18798,16.38,73308.8,-1.67,-2.27,-2.27,0,*5F
1497668682.57,18799,16.38,73302.8,-1.67,-2.31,-2.27,0,*59
1497668683.79,18800,16.38,73300.0,-1.65,-2.23,-2.23,0,*53
1497668685.01,18801,16.38,73302.5,-1.65,-2.23,-2.23,0,*52
1497668686.23,18802,16.38,73300.0,-1.65,-2.27,-2.15,0,*50
1497668687.45,18803,16.38,73300.3,-1.65,-2.39,-2.39,0,*50
1497668688.7,18804,16.38,73286.5,-1.67,-2.55,-2.47,0,*56
1497668689.92,18805,16.38,73288.0,-1.65,-2.43,-2.43,0,*56
1497668691.14,18806,16.38,73284.0,-1.65,-2.39,-2.35,0,*59
1497668692.35,18807,16.38,73286.3,-1.65,-2.39,-2.39,0,*54
1497668693.57,18808,16.38,73284.5,-1.65,-2.35,-2.35,0,*5B
1497668694.79,18809,16.38,73304.5,-1.65,-2.39,-2.39,0,*5A
1497668696.07,18810,16.38,73308.3,-1.65,-2.67,-2.63,0,*56
1497668697.26,18811,16.38,73292.8,-1.67,-2.91,-2.79,0,*57
1497668698.48,18812,16.38,73288.0,-1.65,-2.87,-2.87,0,*50
1497668699.7,18813,16.38,73292.8,-1.65,-2.79,-2.79,0,*51
1497668700.97,18814,16.38,73288.5,-1.65,-2.67,-2.63,0,*52
1497668702.25,18815,16.38,73276.0,-1.65,-2.51,-2.63,0,*56
1497668703.5,18816,16.38,73284.3,-1.67,-2.59,-2.47,0,*59
1497668704.72,18817,16.38,73284.3,-1.65,-2.43,-2.39,0,*58
1497668705.93,18818,16.38,73286.3,-1.65,-2.39,-2.39,0,*5A
1497668707.15,18819,16.38,73286.3,-1.65,-2.35,-2.35,0,*5B
1497668708.37,18820,16.38,73288.0,-1.65,-2.39,-2.39,0,*51
1497668709.59,18821,16.38,73288.8,-1.65,-2.39,-2.39,0,*50
1497668710.81,18822,16.38,73302.5,-1.65,-2.39,-2.39,0,*53
1497668712.08,18823,16.38,73288.5,-1.65,-2.51,-2.63,0,*53
1497668713.36,18824,16.38,73306.0,-1.65,-2.51,-2.51,0,*55
1497668714.64,18825,16.38,73306.0,-1.65,-2.51,-2.51,0,*54
1497668715.92,18826,16.38,73314.8,-1.65,-2.51,-2.51,0,*57
1497668717.19,18827,16.38,73304.8,-1.65,-2.55,-2.55,0,*56
1497668718.44,18828,16.38,73296.5,-1.67,-2.67,-2.59,0,*56
1497668719.72,18829,16.38,73296.8,-1.65,-2.63,-2.63,0,*58
1497668721.0,18830,16.38,73284.8,-1.65,-2.51,-2.51,0,*50
1497668722.21,18831,16.38,73298.5,-1.65,-2.43,-2.43,0,*51
1497668723.43,18832,16.38,73310.5,-1.65,-2.35,-2.35,0,*52
1497668724.65,18833,16.38,73314.0,-1.65,-2.39,-2.39,0,*53
1497668725.9,18834,16.38,73320.0,-1.65,-2.51,-2.39,0,*5A
1497668727.12,18835,16.38,73320.3,-1.65,-2.43,-2.39,0,*58
1497668728.34,18836,16.38,73318.8,-1.65,-2.35,-2.35,0,*56
1497668729.56,18837,16.38,73324.5,-1.65,-2.27,-2.23,0,*53
1497668730.78,18838,16.38,73320.5,-1.65,-2.27,-2.27,0,*58
1497668732.0,18839,16.38,73316.8,-1.65,-2.39,-2.35,0,*55
1497668733.22,18840,16.38,73318.8,-1.61,-2.35,-2.35,0,*53
1497668734.48,18841,16.38,73316.0,-1.63,-2.47,-2.47,0,*50
1497668735.7,18842,16.38,73326.8,-1.63,-2.39,-2.47,0,*5A
1497668736.92,18843,16.38,73322.8,-1.61,-2.39,-2.39,0,*50
1497668738.18,18844,16.38,73320.8,-1.63,-2.47,-2.47,0,*55
1497668739.4,18845,16.38,73324.5,-1.63,-2.39,-2.47,0,*5D
1497668740.68,18846,16.38,73322.3,-1.61,-2.47,-2.59,0,*5A
1497668741.96,18847,16.38,73330.3,-1.61,-2.63,-2.63,0,*54
1497668743.21,18848,16.38,73326.5,-1.63,-2.71,-2.71,0,*59
1497668744.47,18849,16.38,73326.3,-1.63,-2.71,-2.75,0,*5C
1497668745.69,18850,16.38,73316.8,-1.65,-2.79,-2.87,0,*57
1497668746.91,18851,16.38,73292.8,-1.65,-2.87,-2.87,0,*57
1497668748.12,18852,16.38,73306.3,-1.65,-2.91,-2.91,0,*54
1497668749.35,18853,16.38,73294.3,-1.65,-2.99,-2.99,0,*55
1497668750.56,18854,16.38,73282.5,-1.65,-2.91,-2.91,0,*52
1497668751.78,18855,16.38,73284.8,-1.65,-2.79,-2.79,0,*53
1497668753.05,18856,16.38,73302.8,-1.65,-2.75,-2.67,0,*53
1497668754.28,18857,16.38,73290.3,-1.67,-2.63,-2.79,0,*58
1497668755.48,18858,16.38,73300.0,-1.67,-2.95,-2.91,0,*58
1497668756.67,18859,16.38,73302.8,-1.67,-2.91,-2.91,0,*5D
1497668757.86,18860,16.38,73306.0,-1.67,-2.91,-2.91,0,*57
1497668759.06,18861,16.38,73292.5,-1.67,-2.91,-2.95,0,*52
1497668760.26,18862,16.38,73292.3,-1.67,-2.91,-2.95,0,*51
1497668761.45,18863,16.38,73310.5,-1.67,-2.83,-2.79,0,*51
1497668762.72,18864,16.38,73298.0,-1.69,-2.67,-2.59,0,*50
1497668763.94,18865,16.38,73290.5,-1.69,-2.79,-2.79,0,*5C
1497668765.21,18866,16.38,73286.0,-1.69,-2.71,-2.71,0,*5F
1497668766.49,18867,16.38,73314.8,-1.69,-2.47,-2.47,0,*5E
1497668767.72,18868,16.38,73300.0,-1.67,-2.43,-2.47,0,*5B
1497668768.97,18869,16.38,73290.5,-1.67,-2.63,-2.71,0,*5D
1497668770.22,18870,16.38,73302.5,-1.67,-2.59,-2.55,0,*5A
1497668771.47,18871,16.38,73306.8,-1.67,-2.55,-2.47,0,*54
1497668772.72,18872,16.38,73300.8,-1.67,-2.67,-2.67,0,*54
1497668773.98,18873,16.38,73318.5,-1.67,-2.71,-2.71,0,*55
1497668775.23,18874,16.38,73326.8,-1.67,-2.71,-2.71,0,*52
1497668776.48,18875,16.38,73316.5,-1.67,-2.71,-2.71,0,*53
1497668777.68,18876,16.38,73280.8,-1.67,-2.79,-2.79,0,*50
1497668778.9,18877,16.38,73280.5,-1.69,-2.95,-2.91,0,*5B
1497668780.12,18878,16.38,73228.3,-1.69,-2.91,-2.83,0,*53
1497668781.34,18879,16.38,73274.0,-1.69,-2.83,-2.83,0,*51
1497668782.56,18880,16.38,73266.5,-1.69,-2.83,-2.83,0,*57
1497668783.81,18881,16.38,73286.3,-1.69,-2.79,-2.71,0,*5E
1497668785.02,18882,16.38,73290.5,-1.69,-2.79,-2.79,0,*55
1497668786.24,18883,16.38,73298.0,-1.69,-2.91,-2.83,0,*57
1497668787.45,18884,16.38,73286.0,-1.71,-2.95,-2.95,0,*5A
1497668788.65,18885,16.38,73292.0,-1.71,-2.99,-2.95,0,*57
1497668789.87,18886,16.38,73294.5,-1.69,-3.07,-3.15,0,*52
1497668791.09,18887,16.38,73298.0,-1.69,-3.15,-3.15,0,*50
1497668792.29,18888,16.38,73298.0,-1.71,-3.11,-3.11,0,*56
1497668793.49,18889,16.38,73256.5,-1.71,-3.07,-3.07,0,*57
1497668794.7,18890,16.38,73256.5,-1.71,-2.95,-2.99,0,*53
1497668795.9,18891,16.38,73284.3,-1.71,-2.99,-2.99,0,*5E
1497668797.13,18892,16.38,73288.3,-1.71,-2.87,-2.75,0,*50
1497668798.32,18893,16.38,73298.8,-1.71,-2.83,-2.83,0,*5C
1497668799.54,18894,16.38,73300.5,-1.71,-2.83,-2.75,0,*52
1497668800.74,18895,16.38,73284.5,-1.71,-2.83,-2.83,0,*5A
1497668801.95,18896,16.38,73302.8,-1.71,-2.95,-2.95,0,*59
1497668803.14,18897,16.38,73292.3,-1.71,-2.87,-2.83,0,*5C
1497668804.4,18898,16.38,73276.3,-1.69,-2.79,-2.71,0,*56
1497668805.65,18899,16.38,73286.3,-1.71,-2.47,-2.51,0,*51
1497668806.91,18900,16.38,73290.8,-1.71,-2.47,-2.47,0,*57
1497668808.16,18901,16.38,73290.8,-1.71,-2.51,-2.47,0,*51
1497668809.42,18902,16.38,73294.0,-1.71,-2.51,-2.51,0,*55
1497668810.66,18903,16.38,73292.3,-1.71,-2.59,-2.59,0,*54
1497668811.91,18904,16.38,73294.8,-1.71,-2.59,-2.59,0,*53
1497668813.16,18905,16.38,73292.0,-1.71,-2.71,-2.63,0,*51
1497668814.42,18906,16.38,73298.5,-1.71,-2.63,-2.59,0,*58
1497668815.67,18907,16.38,73302.0,-1.71,-2.51,-2.47,0,*57
1497668816.92,18908,16.38,73310.0,-1.71,-2.47,-2.47,0,*5F
1497668818.14,18909,16.38,73318.5,-1.69,-2.39,-2.39,0,*57
1497668819.36,18910,16.38,73312.5,-1.69,-2.43,-2.43,0,*5F
1497668820.64,18911,16.38,73322.5,-1.69,-2.47,-2.47,0,*5E
1497668821.91,18912,16.38,73320.0,-1.69,-2.55,-2.55,0,*5D
1497668823.16,18913,16.38,73312.3,-1.69,-2.67,-2.79,0,*53
1497668824.41,18914,16.38,73310.5,-1.69,-2.79,-2.71,0,*53
1497668825.62,18915,16.38,73318.5,-1.69,-2.83,-2.83,0,*5A
1497668826.82,18916,16.38,73290.0,-1.71,-2.91,-2.95,0,*54
1497668828.05,18917,16.38,73290.5,-1.69,-2.95,-2.91,0,*5C
1497668829.32,18918,16.38,73286.5,-1.69,-2.71,-2.71,0,*57
1497668830.57,18919,16.38,73302.5,-1.69,-2.43,-2.47,0,*52
1497668831.8,18920,16.38,73304.0,-1.71,-2.47,-2.43,0,*51
1497668833.02,18921,16.38,73314.0,-1.71,-2.47,-2.43,0,*50
1497668834.25,18922,16.38,73310.0,-1.69,-2.27,-2.31,0,*59
1497668835.47,18923,16.38,73314.0,-1.69,-2.27,-2.31,0,*58
1497668836.7,18924,16.38,73316.3,-1.69,-2.31,-2.31,0,*58
1497668837.89,18925,16.38,73314.5,-1.67,-2.43,-2.43,0,*57
1497668839.14,18926,16.38,73308.0,-1.67,-2.55,-2.55,0,*54
1497668840.4,18927,16.38,73290.5,-1.67,-2.47,-2.55,0,*56
1497668841.65,18928,16.38,73298.8,-1.67,-2.47,-2.47,0,*5A
1497668842.85,18929,16.38,73306.0,-1.67,-2.27,-2.31,0,*5C
1497668844.05,18930,16.38,73310.8,-1.67,-2.31,-2.27,0,*54
1497668845.25,18931,16.38,73296.5,-1.67,-2.43,-2.39,0,*5F
1497668846.44,18932,16.38,73306.5,-1.67,-2.43,-2.43,0,*51
1497668847.66,18933,16.38,73312.5,-1.67,-2.47,-2.43,0,*54
1497668848.89,18934,16.38,73312.0,-1.67,-2.47,-2.43,0,*53
1497668850.15,18935,16.38,73316.3,-1.67,-2.47,-2.47,0,*56
1497668851.4,18936,16.38,73306.0,-1.67,-2.55,-2.47,0,*56
1497668852.61,18937,16.38,73312.0,-1.65,-2.43,-2.43,0,*56
1497668853.84,18938,16.38,73316.5,-1.65,-2.35,-2.35,0,*59
1497668855.03,18939,16.38,73324.3,-1.67,-2.31,-2.27,0,*5D
1497668856.25,18940,16.38,73320.0,-1.65,-2.39,-2.39,0,*56
1497668857.52,18941,16.38,73314.0,-1.65,-2.55,-2.55,0,*57
1497668858.78,18942,16.38,73322.8,-1.67,-2.55,-2.47,0,*55
1497668860.05,18943,16.38,73328.5,-1.65,-2.55,-2.47,0,*56
1497668861.33,18944,16.38,73326.3,-1.65,-2.63,-2.63,0,*52
1497668862.58,18945,16.38,73334.5,-1.65,-2.75,-2.87,0,*5E
1497668863.77,18946,16.38,73332.8,-1.67,-2.91,-2.91,0,*52
1497668864.97,18947,16.38,73330.3,-1.67,-2.95,-3.03,0,*5D
1497668866.17,18948,16.38,73322.5,-1.67,-3.03,-3.07,0,*58
1497668867.37,18949,16.38,73322.8,-1.67,-3.07,-3.15,0,*5E
1497668868.59,18950,16.38,73314.0,-1.69,-2.91,-2.95,0,*5F
1497668869.84,18951,16.38,73322.3,-1.67,-2.71,-2.71,0,*54
1497668871.09,18952,16.38,73330.0,-1.67,-2.67,-2.71,0,*50
1497668872.29,18953,16.38,73330.3,-1.67,-2.79,-2.83,0,*53
1497668873.48,18954,16.38,73328.0,-1.67,-2.91,-2.91,0,*51
1497668874.68,18955,16.38,73292.3,-1.67,-2.95,-2.91,0,*54
1497668875.87,18956,16.38,73290.5,-1.67,-2.83,-2.83,0,*53
1497668877.12,18957,16.38,73300.0,-1.67,-2.55,-2.55,0,*52
1497668878.34,18958,16.38,73314.5,-1.69,-2.31,-2.27,0,*54
1497668879.57,18959,16.38,73318.8,-1.69,-2.31,-2.31,0,*52
1497668880.82,18960,16.38,73320.3,-1.69,-2.47,-2.43,0,*5C
1497668882.07,18961,16.38,73324.8,-1.67,-2.71,-2.71,0,*57
1497668883.32,18962,16.38,73326.0,-1.67,-2.67,-2.71,0,*53
1497668884.57,18963,16.38,73314.3,-1.67,-2.71,-2.67,0,*52
1497668885.82,18964,16.38,73312.8,-1.67,-2.67,-2.59,0,*5F
1497668887.07,18965,16.38,73314.5,-1.67,-2.59,-2.59,0,*53
1497668888.31,18966,16.38,73296.0,-1.67,-2.59,-2.67,0,*5D
1497668889.59,18967,16.38,73298.3,-1.65,-2.51,-2.51,0,*53
1497668890.79,18968,16.38,73296.8,-1.67,-2.43,-2.43,0,*5E
1497668891.98,18969,16.38,73294.3,-1.67,-2.27,-2.19,0,*52
1497668893.2,18970,16.38,73298.5,-1.65,-2.15,-2.15,0,*55
1497668894.46,18971,16.38,73318.0,-1.67,-2.07,-2.07,0,*56
1497668895.68,18972,16.38,73322.0,-1.65,-2.23,-2.23,0,*57
1497668896.88,18973,16.38,73320.8,-1.67,-2.43,-2.39,0,*59
1497668898.09,18974,16.38,73320.3,-1.65,-2.39,-2.39,0,*51
1497668899.29,18975,16.38,73328.0,-1.67,-2.43,-2.43,0,*52
1497668900.51,18976,16.38,73322.0,-1.67,-2.43,-2.47,0,*55
1497668901.73,18977,16.38,73328.8,-1.65,-2.39,-2.39,0,*52
1497668902.95,18978,16.38,73322.0,-1.65,-2.39,-2.39,0,*5D
1497668904.17,18979,16.38,73326.0,-1.65,-2.39,-2.39,0,*5C
1497668905.39,18980,16.38,73326.0,-1.65,-2.35,-2.35,0,*5A
1497668906.61,18981,16.38,73324.3,-1.65,-2.39,-2.35,0,*57
1497668907.8,18982,16.38,73320.5,-1.63,-2.35,-2.35,0,*5E
1497668909.02,18983,16.38,73324.3,-1.65,-2.35,-2.39,0,*55
1497668910.24,18984,16.38,73326.0,-1.65,-2.39,-2.39,0,*5E